Location: St. Andrews
(45.0670°N, 67.0330°W)
Time: 02:32:43
(UTC-03:00)

Amateur Radio Satellites - All Passes

Search period start: 18 April 2014 02:02
Search period end: 19 April 2014 02:02
Location: St. Andrews, 45.0670°N, 67.0330°W

Satellite Date Start Highest point End Downlink Frequencies (MHz)
Time Altitude Azimuth
UOSAT-12 18 Apr 02:22:08 02:26:13 28° 41° (NE) 02:30:16 437.025 FM, 437.400 FM
Sapphire 18 Apr 02:25:09 02:30:33 75° 303° (WNW) 02:36:01 437.095 MHz 1200 baud AX-25 AFSK
AO-27 18 Apr 02:27:24 02:30:34 16° 90° (E) 02:33:44 436.795 MHz FM
ITAMSAT 1 18 Apr 02:38:08 02:41:54 20° 92° (E) 02:45:38 435.822 SSB
Oscar 19 18 Apr 02:46:13 02:51:12 44° 98° (E) 02:56:08 437.125 CW, 437.150 USB
Oscar 16 18 Apr 02:54:06 02:59:13 55° 100° (E) 03:04:18 437.025 USB, Beacon 2401.1428
KITSAT 1 18 Apr 02:55:31 03:02:00 27° 105° (ESE) 03:08:30 435.175 FM
AO-Echo 18 Apr 03:02:58 03:06:58 26° 94° (E) 03:10:52 ?
PCSat 18 Apr 03:11:01 03:15:57 35° 313° (NW) 03:20:54 145.825 MHz
OPAL 18 Apr 03:11:46 03:16:48 87° 253° (WSW) 03:21:56 ?
SO-50 18 Apr 03:11:50 03:13:15 11° 252° (WSW) 03:14:41 436.795 FM
Uribyol 2 18 Apr 03:26:07 03:31:13 56° 101° (E) 03:36:18 436.500 FM
Gurwin Techsat 1B 18 Apr 03:48:19 03:52:55 29° 95° (E) 03:57:28 435.225 FM
UOSAT-12 18 Apr 04:02:02 04:06:36 50° 240° (WSW) 04:11:07 437.025 FM, 437.400 FM
AO-27 18 Apr 04:05:27 04:10:36 69° 288° (WNW) 04:15:44 436.795 MHz FM
AO-7 18 Apr 04:08:09 04:10:16 11° 84° (E) 04:12:23 29.400 - 29.500 MHz
Sapphire 18 Apr 04:11:24 04:14:56 17° 325° (NW) 04:18:29 437.095 MHz 1200 baud AX-25 AFSK
Oscar 10/S400 18 Apr 04:15:58 04:38:13 38° 137° (SE) 12:59:42 145.825 - 145.975 CW/USB, Beacon 145.810 USB
ITAMSAT 1 18 Apr 04:16:42 04:21:45 56° 289° (WNW) 04:26:48 435.822 SSB
Oscar 19 18 Apr 04:26:01 04:30:20 27° 296° (WNW) 04:34:38 437.125 CW, 437.150 USB
Oscar 16 18 Apr 04:34:16 04:38:12 22° 298° (WNW) 04:42:08 437.025 USB, Beacon 2401.1428
TMSAT-1 18 Apr 04:37:15 04:42:28 56° 100° (E) 04:47:40 436.925 FM
AO-Echo 18 Apr 04:41:25 04:45:52 38° 292° (WNW) 04:50:13 ?
KITSAT 1 18 Apr 04:48:33 04:56:40 75° 306° (NW) 05:04:50 435.175 FM
OPAL 18 Apr 04:55:00 04:56:27 11° 271° (W) 04:57:53 ?
Uosat F 18 Apr 04:58:07 05:02:36 32° 96° (E) 05:07:03 435.120 FM
PCSat 18 Apr 05:00:31 05:01:06 10° 336° (NNW) 05:01:40 145.825 MHz
Uribyol 2 18 Apr 05:06:27 05:10:18 22° 299° (WNW) 05:14:09 436.500 FM
JAS-1B 18 Apr 05:13:52 05:19:27 53° 100° (E) 05:25:06 435.800 - 435.900 CW/SSB
Gurwin Techsat 1B 18 Apr 05:28:03 05:32:59 41° 292° (WNW) 05:37:54 435.225 FM
RS-15 18 Apr 05:43:46 05:47:28 12° 94° (E) 05:51:07 29.354 - 29.394 USB, Beacon 29.352 USB
AO-27 18 Apr 05:47:55 05:49:11 11° 306° (NW) 05:50:26 436.795 MHz FM
STRAND 1 18 Apr 05:49:17 05:52:29 17° 59° (ENE) 05:55:41 ?
AO-7 18 Apr 05:56:32 06:04:46 61° 104° (ESE) 06:12:58 29.400 - 29.500 MHz
TMSAT-1 18 Apr 06:18:00 06:22:00 22° 298° (WNW) 06:26:00 436.925 FM
Uosat F 18 Apr 06:36:55 06:41:23 33° 294° (WNW) 06:45:49 435.120 FM
KITSAT 1 18 Apr 06:46:58 06:53:31 26° 330° (NNW) 07:00:06 435.175 FM
JAS-1B 18 Apr 07:05:24 07:09:49 23° 300° (WNW) 07:14:13 435.800 - 435.900 CW/SSB
Hamsat 18 Apr 07:11:45 07:15:41 32° 96° (E) 07:19:36 145.90 MHz
STRAND 1 18 Apr 07:25:59 07:31:06 74° 257° (WSW) 07:36:14 ?
MaSat-1 18 Apr 07:28:09 07:30:45 32° 59° (ENE) 07:33:43 437.345 MHz
RS-15 18 Apr 07:46:20 07:57:19 60° 115° (ESE) 08:07:58 29.354 - 29.394 USB, Beacon 29.352 USB
AO-7 18 Apr 07:49:52 07:57:09 36° 304° (NW) 08:04:27 29.400 - 29.500 MHz
SO-67 18 Apr 08:05:09 08:07:52 21° 94° (E) 08:10:35 435.3500 MHz FM
PCSat 18 Apr 08:30:58 08:33:41 14° 31° (NNE) 08:36:24 145.825 MHz
JAS-2 18 Apr 08:36:22 08:41:39 66° 102° (ESE) 08:47:25 435.800 - 435.900 CW/SSB, 435.910 FM
KITSAT 1 18 Apr 08:47:31 08:52:19 16° 0° (N) 08:57:07 435.175 FM
Hamsat 18 Apr 08:47:56 08:51:33 26° 293° (WNW) 08:55:11 145.90 MHz
MaSat-1 18 Apr 09:07:33 09:09:02 13° 250° (WSW) 09:10:38 437.345 MHz
Sapphire 18 Apr 09:28:20 09:32:53 26° 43° (NE) 09:37:23 437.095 MHz 1200 baud AX-25 AFSK
SO-67 18 Apr 09:38:05 09:41:01 25° 291° (WNW) 09:43:56 435.3500 MHz FM
RS-15 18 Apr 09:59:15 10:10:01 50° 320° (NW) 10:20:35 29.354 - 29.394 USB, Beacon 29.352 USB
HO-68 18 Apr 10:05:06 10:11:42 38° 97° (E) 10:18:15 435.675 MHz FM
PCSat 18 Apr 10:13:03 10:18:23 53° 53° (NE) 10:23:41 145.825 MHz
Oscar 11 18 Apr 10:19:03 10:21:57 17° 91° (E) 10:24:49 145.825 FM, Beacon 2401.500 USB
JAS-2 18 Apr 10:22:45 10:26:22 19° 299° (WNW) 10:30:09 435.800 - 435.900 CW/SSB, 435.910 FM
KITSAT 1 18 Apr 10:44:29 10:51:06 26° 30° (NNE) 10:57:39 435.175 FM
Sapphire 18 Apr 11:11:22 11:16:43 61° 243° (WSW) 11:22:01 437.095 MHz 1200 baud AX-25 AFSK
FUNcube-1 18 Apr 11:40:08 11:44:07 39° 98° (E) 11:48:09 145.950 - 145.970 MHz USB
Saudisat 1A 18 Apr 11:44:19 11:48:11 30° 116° (ESE) 11:52:04 436.775 MHz
HO-68 18 Apr 11:52:43 11:59:31 47° 296° (WNW) 12:06:18 435.675 MHz FM
Oscar 11 18 Apr 11:54:12 11:58:25 49° 288° (WNW) 12:02:37 145.825 FM, Beacon 2401.500 USB
PCSat 18 Apr 11:57:06 12:01:28 25° 252° (WSW) 12:05:49 145.825 MHz
RS-15 18 Apr 12:16:47 12:25:46 27° 353° (N) 12:34:42 29.354 - 29.394 USB, Beacon 29.352 USB
Oscar 19 18 Apr 12:29:52 12:31:43 12° 55° (NE) 12:33:34 437.125 CW, 437.150 USB
Oscar 16 18 Apr 12:36:49 12:39:36 15° 57° (ENE) 12:42:23 437.025 USB, Beacon 2401.1428
KITSAT 1 18 Apr 12:39:45 12:47:54 77° 55° (NE) 12:55:58 435.175 FM
Uribyol 2 18 Apr 13:09:24 13:12:25 16° 58° (ENE) 13:15:26 436.500 FM
FUNcube-1 18 Apr 13:17:08 13:20:20 21° 295° (WNW) 13:23:34 145.950 - 145.970 MHz USB
Saudisat 1A 18 Apr 13:23:31 13:27:42 38° 314° (NW) 13:31:53 436.775 MHz
HO-68 18 Apr 13:43:48 13:45:31 11° 317° (NW) 13:47:13 435.675 MHz FM
AO-27 18 Apr 13:47:05 13:51:36 31° 65° (ENE) 13:56:07 436.795 MHz FM
ITAMSAT 1 18 Apr 13:57:51 14:02:35 37° 67° (ENE) 14:07:20 435.822 SSB
Oscar 19 18 Apr 14:05:03 14:10:11 76° 74° (ENE) 14:15:22 437.125 CW, 437.150 USB
Oscar 16 18 Apr 14:13:06 14:18:15 86° 255° (WSW) 14:23:27 437.025 USB, Beacon 2401.1428
JAS-1B 18 Apr 14:15:01 14:17:57 13° 52° (NE) 14:20:43 435.800 - 435.900 CW/SSB
AO-Echo 18 Apr 14:17:15 14:22:12 44° 69° (ENE) 14:27:03 ?
TMSAT-1 18 Apr 14:22:55 14:26:07 16° 58° (ENE) 14:29:19 436.925 FM
RS-15 18 Apr 14:32:29 14:42:20 36° 27° (NNE) 14:52:14 29.354 - 29.394 USB, Beacon 29.352 USB
KITSAT 1 18 Apr 14:36:09 14:42:31 26° 255° (WSW) 14:48:51 435.175 FM
Uribyol 2 18 Apr 14:46:05 14:51:15 80° 256° (WSW) 14:56:27 436.500 FM
AO-7 18 Apr 15:07:41 15:13:57 25° 50° (NE) 15:20:14 29.400 - 29.500 MHz
Saudisat 1A 18 Apr 15:08:17 15:08:34 10° 336° (NNW) 15:08:51 436.775 MHz
Gurwin Techsat 1B 18 Apr 15:11:15 15:16:25 55° 71° (ENE) 15:21:36 435.225 FM
OPAL 18 Apr 15:20:25 15:24:20 21° 94° (E) 15:28:14 ?
AO-27 18 Apr 15:26:14 15:31:01 37° 263° (W) 15:35:50 436.795 MHz FM
ITAMSAT 1 18 Apr 15:37:36 15:42:08 30° 264° (W) 15:46:42 435.822 SSB
SO-50 18 Apr 15:47:09 15:50:15 19° 111° (ESE) 15:53:21 436.795 FM
Oscar 19 18 Apr 15:47:23 15:50:07 14° 271° (W) 15:52:53 437.125 CW, 437.150 USB
AO-Echo 18 Apr 15:56:47 16:01:07 26° 266° (W) 16:05:24 ?
Oscar 16 18 Apr 15:56:59 15:58:23 11° 273° (W) 15:59:46 437.025 USB, Beacon 2401.1428
JAS-1B 18 Apr 15:59:38 16:07:33 62° 70° (ENE) 16:14:10 435.800 - 435.900 CW/SSB
TMSAT-1 18 Apr 16:00:05 16:05:23 80° 256° (WSW) 16:10:43 436.925 FM
ISS 18 Apr 16:03:12 16:05:44 20° 136° (SE) 16:08:16 145.800 FM
Uosat F 18 Apr 16:13:12 16:18:06 56° 71° (ENE) 16:23:02 435.120 FM
Uribyol 2 18 Apr 16:31:09 16:31:33 10° 274° (W) 16:31:57 436.500 FM
RS-15 18 Apr 16:45:16 16:56:17 88° 55° (NE) 17:07:32 29.354 - 29.394 USB, Beacon 29.352 USB
Gurwin Techsat 1B 18 Apr 16:52:44 16:56:43 21° 268° (W) 17:00:44 435.225 FM
AO-7 18 Apr 16:57:29 17:05:46 89° 251° (WSW) 17:14:07 29.400 - 29.500 MHz
OPAL 18 Apr 16:58:27 17:03:33 56° 292° (WNW) 17:08:38 ?
SO-50 18 Apr 17:25:58 17:30:23 57° 310° (NW) 17:34:52 436.795 FM
ISS 18 Apr 17:38:52 17:42:12 67° 334° (NNW) 17:45:33 145.800 FM
TMSAT-1 18 Apr 17:45:16 17:46:09 10° 274° (W) 17:47:02 436.925 FM
JAS-1B 18 Apr 17:51:39 17:58:24 29° 265° (W) 18:04:19 435.800 - 435.900 CW/SSB
Uosat F 18 Apr 17:53:40 17:57:15 19° 268° (W) 18:00:50 435.120 FM
Hamsat 18 Apr 18:07:27 18:11:06 29° 68° (ENE) 18:14:47 145.90 MHz
UOSAT-12 18 Apr 18:15:21 18:19:20 31° 115° (ESE) 18:23:25 437.025 FM, 437.400 FM
Saudisat 1A 18 Apr 18:31:03 18:32:21 11° 26° (NNE) 18:33:39 436.775 MHz
SO-67 18 Apr 18:42:39 18:43:49 11° 63° (ENE) 18:44:58 435.3500 MHz FM
JAS-2 18 Apr 18:51:24 18:56:33 35° 67° (ENE) 19:01:20 435.800 - 435.900 CW/SSB, 435.910 FM
AO-7 18 Apr 18:54:02 18:59:39 20° 271° (W) 19:05:19 29.400 - 29.500 MHz
RS-15 18 Apr 18:58:54 19:07:14 26° 257° (WSW) 19:15:46 29.354 - 29.394 USB, Beacon 29.352 USB
SO-50 18 Apr 19:09:45 19:11:57 13° 331° (NNW) 19:14:09 436.795 FM
ISS 18 Apr 19:16:26 19:19:22 27° 353° (N) 19:22:18 145.800 FM
STRAND 1 18 Apr 19:34:55 19:39:28 32° 96° (E) 19:43:59 ?
Hamsat 18 Apr 19:43:31 19:47:05 26° 266° (W) 19:50:41 145.90 MHz
UOSAT-12 18 Apr 19:55:06 19:59:24 38° 314° (NW) 20:03:48 437.025 FM, 437.400 FM
Saudisat 1A 18 Apr 20:08:50 20:13:06 44° 48° (NE) 20:17:19 436.775 MHz
SO-67 18 Apr 20:13:06 20:16:32 53° 260° (W) 20:19:59 435.3500 MHz FM
HO-68 18 Apr 20:36:00 20:42:20 36° 60° (ENE) 20:48:42 435.675 MHz FM
JAS-2 18 Apr 20:36:23 20:41:40 35° 263° (W) 20:46:35 435.800 - 435.900 CW/SSB, 435.910 FM
ISS 18 Apr 20:53:41 20:56:45 31° 13° (NNE) 20:59:49 145.800 FM
STRAND 1 18 Apr 21:14:05 21:18:40 35° 294° (WNW) 21:23:14 ?
Oscar 11 18 Apr 21:16:28 21:19:26 18° 63° (ENE) 21:22:25 145.825 FM, Beacon 2401.500 USB
UOSAT-12 18 Apr 21:39:40 21:40:53 11° 337° (NNW) 21:42:07 437.025 FM, 437.400 FM
Saudisat 1A 18 Apr 21:48:57 21:52:28 24° 246° (WSW) 21:55:58 436.775 MHz
HO-68 18 Apr 22:22:56 22:29:49 51° 260° (W) 22:36:46 435.675 MHz FM
ISS 18 Apr 22:30:23 22:33:44 74° 213° (SSW) 22:37:05 145.800 FM
FUNcube-1 18 Apr 22:38:52 22:42:48 40° 71° (ENE) 22:46:43 145.950 - 145.970 MHz USB
Oscar 11 18 Apr 22:51:08 22:55:18 48° 261° (W) 22:59:30 145.825 FM, Beacon 2401.500 USB
MaSat-1 18 Apr 23:11:57 23:14:37 36° 301° (WNW) 23:17:02 437.345 MHz
ISS 19 Apr 00:08:56 00:09:57 11° 229° (SW) 00:10:58 145.800 FM
SO-50 19 Apr 00:15:27 00:19:41 34° 44° (NE) 00:23:57 436.795 FM
Sapphire 19 Apr 00:15:29 00:17:36 12° 102° (ESE) 00:19:43 437.095 MHz 1200 baud AX-25 AFSK
FUNcube-1 19 Apr 00:16:24 00:19:24 19° 267° (W) 00:22:25 145.950 - 145.970 MHz USB
PCSat 19 Apr 00:57:21 01:02:03 31° 110° (ESE) 01:06:46 145.825 MHz
UOSAT-12 19 Apr 01:03:43 01:05:51 13° 27° (NNE) 01:08:00 437.025 FM, 437.400 FM
